COSMOS 1275 DEB, 42231

Orbit data source: Space-Track

COSMOS 1275 DEB, 42231 is space debris in LEO originally from a launch on Thu, 04 Jun 1981 UTC launched from the Plesetsk Missile And Space Complex (PKMTR). Debris objects in space refer to the collection of defunct objects orbiting the Earth. Examples of debris include non-operational satellites, rocket bodies, and fragments generated from explosions, collisions, or faulty payload assembly.

Loading next visibility...
Identifier
42231, 1981-053UX
Orbit
LEO
Country
Flag of CISCIS
Related business
Manufacturer
Unknown
Mission
Spacecraft
Bus & Motor
Unknown
Mass
Unknown
Launch date (UTC)
1981-06-04 (45 years ago)
Launch vehicle
Unknown
Launch site
Plesetsk Missile And Space Complex (PKMTR)
Object type
Payload
Rocket body
Debris
Shape & HBR
Unknown shape, 0.1 m
Radar Cross Section
Small (<0.1 m²)

Expand to show TLE details & history
Last TLE update: 1 day ago

TLE from 1 day ago
0 COSMOS 1275 DEB
1 42231U 81053UX  26263.98575600  .00002178  00000-0  77815-3 0  9997
2 42231  82.7576 158.4624 0029973 256.2204 103.5648 14.33521232663233
Epoch: 2026-09-20T23:39Z
TLE epoch observation values (Epoch: 2026-09-20T23:39:29.318Z)
Latitude
-0.00001°
Longitude
163.71816°
Altitude
788.055 km
Speed
7.457 km/s
True Right ascension
10h 33m 50s
True Declination
0° 00' 00"
Sunlit
Object was in daylight at epoch
Visualization orbit readout
Latitude
Unknown
Longitude
Unknown
Altitude
Unknown
Speed
Unknown
Apparent Right ascension
Unknown
Apparent Declination
Unknown
Sunlit
N/A
Visualization observer readout
Local Sidereal Time
00:51:28
Azimuth
Unknown
Elevation
Unknown
Doppler factor
Unknown
Orbital elements
Apogee altitude
798.507 km
Perigee altitude
755.614 km
Semi-major axis
7,155.197 km
Eccentricity
0.003
Inclination
82.7576°
RAAN
158.4624°
Arg. of periapsis
256.2204°
True anomaly
103.89839°
Mean anomaly
103.5648°
Eccentric anomaly
103.73162°
Mean motion
3.586 °/min
Orbital period
100.39 mins
BSTAR
0.00077815
Loading maneuver chart data...
Computing Atmospheric mass density...

Documentation

Showing up to 5 results
|